Location: Tehachapi Municipal Airport
(35.1300°N, 118.4400°W)
Time: 11:28:26
(UTC-08:00)

BREEZE M DEB (TANK) - Visible Passes

Search period start: 24 February 2017 00:00
Search period end: 06 March 2017 00:00
Orbit: 295 x 11989 km, 49.5° (Epoch: 24 February)

Date Brightness Start Highest point End Pass type
(mag) Time Alt. Az. Time Alt. Az. Time Alt. Az.
24 Feb 6.4 00:01:43 10° SSW 01:07:23 38° E 01:12:55 10° ENE visible
24 Feb 5.2 04:59:48 22° W 05:07:33 36° NNW 05:12:53 10° NE visible
24 Feb 6.9 23:10:28 10° S 00:21:45 23° ENE 00:24:56 10° ENE visible
25 Feb 5.2 04:14:09 37° W 04:19:27 48° NW 04:25:51 10° NE visible
25 Feb 7.3 22:22:03 10° S 23:36:04 11° ENE 23:36:24 10° ENE visible
26 Feb 5.3 03:28:28 57° WNW 03:31:12 63° NW 03:38:45 10° NE visible
26 Feb 7.6 21:37:18 10° SSE 22:50:21 - ENE 22:00:57 19° SSE visible
27 Feb 5.5 02:42:44 80° NW 02:42:44 80° NW 02:51:35 10° NE visible
27 Feb 8.8 20:57:57 10° SSE 21:15:04 15° SE 21:15:04 15° SE visible
28 Feb 5.7 00:59:34 10° SW 01:56:56 67° ENE 02:04:15 10° NE visible
28 Feb 5.1 05:52:03 10° WNW 06:00:01 22° NNW 06:03:38 10° NE visible
01 Mar 6.2 00:03:40 10° SSW 01:11:05 45° ENE 01:16:45 10° ENE visible
01 Mar 5.3 05:03:27 16° WNW 05:11:39 29° NNW 05:16:24 10° NE visible
01 Mar 6.7 23:09:57 10° SSW 00:25:12 29° ENE 00:29:00 10° ENE visible
02 Mar 5.4 04:17:34 29° WNW 04:23:18 38° NNW 04:29:13 10° NE visible
02 Mar 7.1 22:18:45 10° S 23:39:17 16° ENE 23:40:52 10° ENE visible
03 Mar 5.4 03:31:38 45° WNW 03:34:54 51° NW 03:42:00 10° NE visible
03 Mar 7.4 21:30:29 10° S 22:53:19 - ENE 22:05:00 26° SSE visible
04 Mar 5.5 02:45:39 64° NW 02:46:20 65° NW 02:54:45 10° NE visible
04 Mar 8.6 20:45:55 10° SSE 21:19:40 23° SSE 21:19:40 23° SSE visible
05 Mar 5.6 01:05:20 10° SW 01:59:38 71° NNE 02:07:25 10° NE visible
05 Mar 8.7 20:06:42 10° SSE 20:34:28 18° SE 20:34:28 18° SE visible
